Flag for Germany Weather past 2 weeks in Göttingen, Lower Saxony, Germany

Now
68 °F

Sunny.


Feels Like: 68 °F
Forecast: 57 / 73 °F
Wind: 9 mph from Southeast

Location: Kassel / Calden

Current Time: Sep 18, 2014 at 1:51:17 PM

Latest Report: Sep 18, 2014 at 1:20 PM


Visibility: 10 mi

Pressure: 29.92 "Hg

Humidity: 73%

Dew point: 59 °F

Location of GöttingenLocation

Historic Weather in Göttingen — Graph

°F

Göttingen temperature yesterday

Maximum temperature yesterday: 73 °F (at 3:20 PM)
Minimum temperature yesterday: 54 °F (at 6:50 AM)
Average temperature yesterday: 65 °F

Past Weeks' High & Low Weather Summary

 TemperatureHumidityPressure
High77 °F (Sep 5, 2:50 PM)100% (Sep 5, 6:20 AM)30.24 "Hg (Sep 5, 6:20 AM)
Low46 °F (Sep 9, 6:20 AM)11% (Sep 9, 4:50 PM)29.89 "Hg (Sep 6, 2:50 PM)
Average62 °F83%30.06 "Hg
* Reported Sep 3 12:20 PM — Sep 18 12:50 PM, Göttingen, Weather by CustomWeather, © 2014

Note: Actual official high and low records may vary slightly from our data, if they occured in-between our weather recording intervals... More about our weather records

Advertising

Göttingen weather history for previous 24 hours

 ConditionsComfort  
Time TempWeatherWind HumidityBarometerVisibility
12:50 PM
Sep 18
72 °FSunny.9 mph65%29.92 "Hg10 mi
12:20 PM68 °FPassing clouds.7 mph69%29.92 "HgN/A
11:50 AM68 °FSunny.8 mph73%29.92 "Hg10 mi
11:20 AM66 °FSunny.7 mph73%29.92 "Hg10 mi
10:50 AM66 °FPassing clouds.5 mph73%29.92 "HgN/A
10:20 AM63 °FLight fog.3 mph83%29.92 "HgN/A
9:50 AM61 °FLight fog.5 mph88%29.92 "HgN/A
9:20 AM59 °FSunny.5 mph88%29.92 "HgN/A
8:50 AM57 °FFog.2 mph88%29.92 "HgN/A
8:20 AM55 °FFog.1 mph94%29.92 "HgN/A
7:50 AM52 °FFog.2 mph94%29.92 "HgN/A
7:20 AM50 °FFog.2 mph100%29.92 "Hg4 mi
6:50 AM50 °FLight fog.1 mph100%29.92 "Hg3 mi
6:20 AM52 °FLight fog.1 mph100%29.92 "Hg2 mi
5:50 AM52 °FLight fog.1 mph100%29.92 "Hg3 mi
10:50 PM
Sep 17
59 °FClear.3 mph88%29.95 "Hg10 mi
10:20 PM59 °FClear.2 mph88%29.95 "Hg10 mi
9:50 PM59 °FClear.3 mph88%29.95 "Hg10 mi
9:20 PM61 °FClear.3 mph88%29.95 "Hg10 mi
8:50 PM64 °FClear.3 mph78%29.95 "Hg10 mi
8:20 PM64 °FSunny.3 mph78%29.92 "Hg10 mi
7:50 PM66 °FSunny.5 mph73%29.92 "Hg10 mi
7:20 PM68 °FSunny.7 mph73%29.92 "Hg10 mi
6:50 PM70 °FPassing clouds.8 mph69%29.92 "HgN/A
6:20 PM70 °FPassing clouds.7 mph69%29.92 "HgN/A
5:50 PM72 °FPassing clouds.7 mph61%29.92 "HgN/A
5:20 PM73 °FPassing clouds.9 mph61%29.92 "HgN/A
4:50 PM72 °FPassing clouds.10 mph65%29.92 "HgN/A
4:20 PM73 °FPassing clouds.9 mph57%29.92 "HgN/A
3:50 PM73 °FPassing clouds.9 mph61%29.92 "HgN/A
3:20 PM73 °FPassing clouds.6 mph61%29.95 "HgN/A
2:50 PM72 °FScattered clouds.8 mph65%29.95 "HgN/A
2:20 PM72 °FPassing clouds.8 mph61%29.95 "HgN/A
1:50 PM72 °FPassing clouds.7 mph65%29.95 "HgN/A
1:20 PM72 °FPassing clouds.5 mph61%29.95 "HgN/A
Weather by CustomWeather, © 2014

See weather overviewHow to use our weather pages